Weather History for KEWR - September, 2013

Change the Weather History Date:

Sunday, September 1, 2013

  Actual Average Record
Temperature  
Mean Temperature 79 °F 73 °F  
Max Temperature 84 °F 82 °F 98 °F (2010)
Min Temperature 73 °F 65 °F 50 °F (1943)
Degree Days  
Heating Degree Days 0 0  
Month to date heating degree days 0 0  
Since 1 July heating degree days 0 1  
Cooling Degree Days 14 8  
Month to date cooling degree days 14 8  
Year to date cooling degree days 1185 1042  
Growing Degree Days 28 (Base 50)    
Moisture  
Dew Point 71 °F    
Average Humidity 81    
Maximum Humidity 93    
Minimum Humidity 69    
Precipitation  
Precipitation T in 0.10 in 2.22 in (1959)
Month to date precipitation T 0.10  
Year to date precipitation 33.30 31.47  
Snow  
Snow 0.00 in 0.00 in 0.00 in (2002)
Month to date snowfall 0.0 0.0  
Since 1 July snowfall 0.0 0.0  
Snow Depth 0.00 in    
Sea Level Pressure  
Sea Level Pressure 29.83 in    
Wind  
Wind Speed 6 mph (South)    
Max Wind Speed 13 mph    
Max Gust Speed 16 mph    
Visibility 10 miles    
Events Rain , Thunderstorm    
T = Trace of Precipitation, MM = Missing Value Source: NWS Daily Summary

Daily Weather History Graph

Daily Weather History Graph

Search for Another Location

Airport or City:

Trip Planner

Search our weather history database for the weather conditions in past years. The results will help you decide how hot, cold, wet, or windy it might be!

Date:

Astronomy

Sep. 01, 2013 Rise Set
Actual Time 6:23 AM EDT 7:28 PM EDT
Civil Twilight 5:55 AM EDT 7:56 PM EDT
Nautical Twilight 5:22 AM EDT 8:29 PM EDT
Astronomical Twilight 4:47 AM EDT 9:04 PM EDT
Moon 2:42 AM EDT (9/1) 5:04 PM EDT (9/1)
Length of Visible Light 14h 00m
Length of Day
13h 04m
Waning Crescent, 14% of the Moon is Illuminated
Sep 1
Waning Crescent
Sep 5
New
Sep 12
First Quarter
Sep 19
Full
Sep 26
Last Quarter

Hourly Weather History & Observations

Time (EDT) Temp. Heat Index Dew Point Humidity Pressure Visibility Wind Dir Wind Speed Gust Speed Precip Events Conditions
12:51 AM 80.1 °F 83.6 °F 71.1 °F 74% 29.83 in 10.0 mi SW 5.8 mph - N/A   Mostly Cloudy
1:51 AM 78.1 °F - 70.0 °F 76% 29.82 in 10.0 mi SW 10.4 mph - N/A   Mostly Cloudy
2:51 AM 75.9 °F - 71.1 °F 85% 29.82 in 10.0 mi SSW 9.2 mph - N/A   Mostly Cloudy
3:51 AM 75.9 °F - 71.1 °F 85% 29.81 in 10.0 mi South 6.9 mph - N/A   Partly Cloudy
4:12 AM 75.2 °F - 71.6 °F 89% 29.82 in 10.0 mi South 10.4 mph - N/A Thunderstorm Thunderstorm
4:51 AM 73.9 °F - 72.0 °F 93% 29.81 in 10.0 mi SSW 11.5 mph - N/A Thunderstorm Thunderstorm
5:26 AM 73.4 °F - 71.6 °F 94% 29.82 in 10.0 mi South 9.2 mph - N/A   Mostly Cloudy
5:51 AM 73.9 °F - 71.1 °F 91% 29.83 in 10.0 mi South 3.5 mph - N/A   Mostly Cloudy
6:51 AM 73.9 °F - 71.1 °F 91% 29.85 in 10.0 mi SW 3.5 mph - N/A   Overcast
7:51 AM 75.0 °F - 72.0 °F 90% 29.85 in 10.0 mi South 5.8 mph - N/A   Overcast
8:47 AM 77.0 °F - 71.6 °F 83% 29.85 in 10.0 mi South 5.8 mph - N/A   Overcast
8:51 AM 77.0 °F - 72.0 °F 84% 29.85 in 10.0 mi SSE 4.6 mph - N/A   Overcast
9:51 AM 77.0 °F - 72.0 °F 84% 29.86 in 10.0 mi SSW 8.1 mph - N/A   Overcast
10:19 AM 77.0 °F - 73.4 °F 89% 29.86 in 10.0 mi South 6.9 mph - N/A   Overcast
10:41 AM 78.8 °F - 71.6 °F 78% 29.86 in 10.0 mi SSW 6.9 mph - 0.00 in Rain Light Rain
10:51 AM 78.1 °F - 72.0 °F 81% 29.86 in 9.0 mi South 5.8 mph - 0.00 in Rain Light Rain
11:16 AM 78.8 °F - 71.6 °F 78% 29.85 in 9.0 mi South 4.6 mph - 0.00 in   Mostly Cloudy
11:51 AM 81.0 °F 85.2 °F 72.0 °F 74% 29.85 in 10.0 mi SE 3.5 mph - 0.00 in   Mostly Cloudy
12:29 PM 80.6 °F 84.6 °F 71.6 °F 74% 29.84 in 10.0 mi SSE 6.9 mph - N/A   Mostly Cloudy
12:51 PM 82.0 °F 87.4 °F 73.0 °F 74% 29.84 in 10.0 mi South 9.2 mph - N/A   Mostly Cloudy
1:51 PM 82.9 °F 88.0 °F 72.0 °F 69% 29.83 in 10.0 mi SSW 5.8 mph - N/A   Overcast
2:04 PM 82.4 °F 88.2 °F 73.4 °F 74% 29.82 in 10.0 mi South 5.8 mph - N/A   Overcast
2:51 PM 84.0 °F 90.2 °F 73.0 °F 69% 29.81 in 10.0 mi SSE 5.8 mph - N/A   Mostly Cloudy
3:51 PM 82.9 °F 88.0 °F 72.0 °F 69% 29.81 in 10.0 mi SE 9.2 mph - N/A   Mostly Cloudy
4:51 PM 82.0 °F 86.7 °F 72.0 °F 71% 29.80 in 10.0 mi ESE 9.2 mph - N/A   Mostly Cloudy
5:51 PM 81.0 °F 85.2 °F 72.0 °F 74% 29.80 in 10.0 mi ESE 9.2 mph - N/A   Mostly Cloudy
6:51 PM 80.1 °F 83.6 °F 71.1 °F 74% 29.81 in 10.0 mi South 8.1 mph - N/A   Overcast
7:51 PM 79.0 °F - 69.1 °F 72% 29.80 in 10.0 mi SSE 4.6 mph - 0.00 in   Overcast
8:51 PM 77.0 °F - 68.0 °F 74% 29.82 in 10.0 mi SSW 4.6 mph - N/A   Overcast
9:51 PM 78.1 °F - 68.0 °F 71% 29.83 in 10.0 mi SSE 3.5 mph - N/A   Overcast
10:51 PM 77.0 °F - 71.1 °F 82% 29.83 in 10.0 mi ESE 3.5 mph - N/A   Overcast
11:51 PM 75.9 °F - 72.0 °F 87% 29.81 in 9.0 mi East 4.6 mph - N/A   Overcast